Terminal Aerodrome Forecast
Issued by NWS Central Illinois

Home | Current Version | Previous Version | Text Only | Print | Product List | Glossary On
Versions: 1 2 3 4 5 6 7 8 9 10 11 12 13 14 15 16 17 18 19 20 21 22
000
FTUS43 KILX 171100
TAFPIA
TAF
KPIA 171129Z 1712/1812 19006KT P6SM BKN250
     FM171400 26008KT P6SM SCT020 BKN200
     FM172000 29005KT P6SM OVC070
     FM180200 VRB03KT P6SM OVC050=

USA.gov is the U.S. government's official web portal to all federal, state and local government web resources and services.